[[{"header":{"parameterUnit":"m.s-1","parameterCategory":1,"la1":30.2991,"la2":30.254,"lo1":-89.0895,"lo2":-89.0444,"dy":0.0017,"dx":0.0017,"nx":28,"ny":28,"refTime":"2025-09-08T03:00:00:Z","depth":0,"parameterNumber":2,"parameterNumberName":"U-component_of_WINDS"},"data":[0,0,0,0,0,0,0,0,0,0,0,0,0,0,0,0,0,0,0,0,0,0,0,0,0,0,0,0,0,0,0,0,0,0,0,0,0,0,0,0,0,0,0,0,0,0,0,0,0,0,0,0,0,0,0,0,0,0,-1.2659,-1.2659,0,-1.2654,-1.2654,-1.2654,-1.2599,-1.2597,-1.2596,-1.2595,-1.2591,-1.2592,-1.2594,0,0,0,0,0,0,0,0,0,0,0,0,0,-1.2622,-1.2623,-1.2659,-1.2659,-1.2659,-1.2654,-1.2654,-1.2654,-1.2599,-1.2597,-1.2596,-1.2594,-1.2591,-1.2592,-1.2594,0,0,0,0,0,0,0,0,0,0,0,0,0,-1.263,-1.2624,-1.2659,-1.2631,-1.2628,-1.2654,-1.2654,-1.2654,-1.2599,-1.2597,-1.2595,-1.2593,-1.259,-1.2592,-1.2594,-1.2646,0,0,-1.2599,-1.26,0,0,0,0,0,0,0,0,-1.263,-1.2631,-1.2635,-1.2633,-1.263,-1.2625,-1.2639,-1.2651,-1.26,-1.2611,-1.2595,-1.2592,-1.2604,-1.2605,-1.2608,-1.2646,-1.2646,-1.2599,-1.2601,-1.2601,-1.2602,0,0,0,0,0,0,0,-1.2629,-1.2631,-1.2657,-1.2635,-1.2632,-1.2619,-1.2618,-1.2642,-1.2619,-1.2609,-1.2605,-1.2605,-1.2602,-1.2607,-1.2608,-1.2646,-1.2599,-1.2601,-1.2602,-1.2603,-1.2726,-1.2728,0,0,0,0,0,0,-1.2632,-1.2631,-1.2657,-1.2657,-1.2625,-1.2621,-1.262,-1.2629,-1.2619,-1.2615,-1.2607,-1.2603,-1.2605,-1.2606,-1.2608,-1.2668,-1.2601,-1.2603,-1.2604,-1.2723,-1.2726,-1.2728,0,0,0,0,0,0,-1.2632,-1.2635,-1.2657,-1.2643,-1.2645,-1.2624,-1.2634,-1.263,-1.2634,-1.2617,-1.2613,-1.2616,-1.2603,-1.2605,-1.2637,-1.2667,-1.2604,-1.2605,-1.2721,-1.2724,-1.2727,-1.2789,0,0,0,0,0,0,-1.2631,-1.2635,-1.2655,-1.2644,-1.2646,-1.2687,-1.2636,-1.2631,-1.2637,-1.2631,-1.2624,-1.2621,-1.2602,-1.2634,-1.2639,-1.2668,-1.2607,-1.2718,-1.2722,-1.2726,-1.2784,-1.2794,-1.2803,0,0,0,0,0,-1.263,-1.2673,-1.2656,-1.266,-1.267,-1.2689,-1.269,-1.2667,-1.264,-1.2659,-1.2648,-1.2621,-1.2663,-1.2638,-1.2642,-1.2673,-1.2716,-1.2721,-1.2726,-1.278,-1.2792,-1.2802,0,0,0,0,0,0,-1.269,-1.2672,-1.2652,-1.2694,-1.2693,-1.2679,-1.2704,-1.268,-1.2688,-1.2682,-1.2653,-1.2652,-1.2688,-1.2684,-1.2657,-1.2723,-1.2685,-1.2691,-1.2725,-1.2736,-1.2745,-1.2745,-1.2608,0,0,0,0,0,-1.2708,-1.2724,-1.2707,-1.2745,-1.2746,-1.2725,-1.2732,-1.2714,-1.2713,-1.2712,-1.2704,-1.2704,-1.2716,-1.2726,-1.2737,-1.2783,-1.2781,-1.2806,-1.2815,-1.2823,-1.2829,-1.2852,-1.2863,-1.2745,-1.2745,-1.2745,0,0,-1.2745,-1.2737,-1.275,-1.2757,-1.2754,-1.2772,-1.2725,-1.2746,-1.2759,-1.2716,-1.2745,-1.2738,-1.2736,-1.2775,-1.2792,-1.2773,-1.2861,-1.2829,-1.2835,-1.2837,-1.2858,-1.2869,-1.2879,-1.2748,-1.2747,-1.2747,0,0,-1.2822,-1.2818,-1.2849,-1.2847,-1.2843,-1.2828,-1.2836,-1.2825,-1.2819,-1.2848,-1.2815,-1.283,-1.2853,-1.2853,-1.2856,-1.2931,-1.2906,-1.2936,-1.2984,-1.3007,-1.3016,-1.3024,-1.3051,-1.306,-1.2941,-1.2942,-1.2942,0,-1.287,-1.2895,-1.2868,-1.289,-1.2894,-1.2855,-1.2885,-1.2885,-1.2886,-1.2889,-1.2867,-1.2895,-1.2891,-1.2929,-1.2947,-1.2951,-1.2958,-1.2937,-1.3017,-1.3025,-1.3032,-1.3057,-1.3067,-1.2945,-1.2945,-1.2944,-1.2944,0,-1.2953,-1.297,-1.2996,-1.2996,-1.3003,-1.3029,-1.3006,-1.3017,-1.2998,-1.2985,-1.3015,-1.3008,-1.3017,-1.3024,-1.3007,-1.306,-1.3048,-1.3022,-1.2983,-1.3047,-1.307,-1.3079,-1.295,-1.2949,-1.2948,-1.2947,0,0,-1.3069,-1.3052,-1.3062,-1.3061,-1.3053,-1.3067,-1.3091,-1.3099,-1.3108,-1.3109,-1.3129,-1.3149,-1.3124,-1.3128,-1.3109,-1.313,-1.3189,-1.3101,-1.31,-1.3117,-1.3247,-1.3266,-1.3278,-1.3172,-1.3174,-1.3175,-1.3247,0,-1.3143,-1.3183,-1.3159,-1.3203,-1.3219,-1.3181,-1.3202,-1.32,-1.3189,-1.3201,-1.3189,-1.3203,-1.317,-1.3171,-1.3189,-1.3178,-1.3215,-1.3172,-1.319,-1.3191,-1.3192,-1.329,-1.3311,-1.3379,-1.3255,-1.3257,-1.3258,0,-1.3235,-1.3239,-1.3285,-1.3272,-1.3278,-1.3298,-1.3302,-1.3314,-1.331,-1.33,-1.3304,-1.328,-1.3303,-1.3264,-1.3296,-1.3267,-1.3273,-1.3268,-1.327,-1.3271,-1.3229,-1.3293,-1.34,-1.341,-1.3272,-1.3271,-1.327,0,-1.3315,-1.3332,-1.3361,-1.3361,-1.3348,-1.3362,-1.3358,-1.3352,-1.3357,-1.3361,-1.3364,-1.3371,-1.3375,-1.3381,-1.336,-1.3334,-1.3394,-1.3354,-1.3387,-1.3387,-1.3402,-1.3401,-1.3511,-1.3406,-1.3405,-1.3405,-1.3405,0,-1.34,-1.343,-1.3396,-1.3414,-1.3446,-1.3417,-1.3449,-1.3441,-1.3435,-1.3451,-1.3418,-1.3434,-1.3405,-1.3417,-1.34,-1.3429,-1.3431,-1.3424,-1.3419,-1.3427,-1.3428,-1.343,-1.3425,-1.3408,-1.3407,-1.3407,-1.3406,0,-1.3495,-1.3474,-1.3503,-1.3487,-1.3484,-1.3508,-1.3495,-1.3511,-1.3497,-1.3517,-1.352,-1.3499,-1.3511,-1.349,-1.3501,-1.349,-1.3529,-1.3517,-1.353,-1.3527,-1.3561,-1.3558,-1.3676,-1.369,-1.3576,-1.3577,-1.3578,0,-1.3552,-1.3573,-1.3559,-1.3566,-1.3563,-1.3576,-1.3581,-1.3554,-1.356,-1.3557,-1.3573,-1.3583,-1.3589,-1.3612,-1.3597,-1.3605,-1.3593,-1.3634,-1.3594,-1.3601,-1.3593,-1.3592,-1.3594,-1.3642,-1.3644,-1.3645,-1.3646,0,-1.3653,-1.3641,-1.3649,-1.3653,-1.366,-1.3662,-1.3663,-1.3671,-1.3641,-1.3651,-1.3663,-1.3668,-1.3678,-1.3688,-1.3692,-1.3687,-1.3662,-1.3658,-1.3666,-1.3674,-1.3681,-1.3677,-1.3552,-1.3656,-1.3655,-1.3654,-1.3653,-1.3653,-1.373,-1.3747,-1.3739,-1.3749,-1.3746,-1.3746,-1.376,-1.3747,-1.3756,-1.3762,-1.3745,-1.3761,-1.3755,-1.3758,-1.3756,-1.3768,-1.375,-1.3762,-1.3765,-1.3768,-1.3773,-1.3679,-1.3769,-1.3768,-1.3768,-1.3768,-1.3768,0,-1.383,-1.3822,-1.3832,-1.3832,-1.384,-1.3814,-1.3812,-1.382,-1.3834,-1.3831,-1.3837,-1.3851,-1.386,-1.3846,-1.3853,-1.3865,-1.3854,-1.3868,-1.3867,-1.3866,-1.3789,-1.3781,-1.3877,-1.3877,-1.3877,-1.3877,-1.3877,-1.3877,-1.3883,-1.3909,-1.3896,-1.3921,-1.3913,-1.3928,-1.3929,-1.3929,-1.3926,-1.3942,-1.3949,-1.3939,-1.3931,-1.3937,-1.3944,-1.394,-1.3944,-1.3962,-1.3954,-1.3882,-1.3872,-1.3862,-1.3854,-1.3964,-1.3964,-1.403,-1.403,-1.4031]},{"header":{"parameterUnit":"m.s-1","parameterCategory":1,"la1":30.2991,"la2":30.254,"lo1":-89.0895,"lo2":-89.0444,"dy":0.0017,"dx":0.0017,"nx":28,"ny":28,"refTime":"2025-09-08T03:00:00:Z","depth":0,"parameterNumber":3,"parameterNumberName":"V-component_of_WINDS"},"data":[0,0,0,0,0,0,0,0,0,0,0,0,0,0,0,0,0,0,0,0,0,0,0,0,0,0,0,0,0,0,0,0,0,0,0,0,0,0,0,0,0,0,0,0,0,0,0,0,0,0,0,0,0,0,0,0,0,0,-6.3102,-6.3102,0,-6.3142,-6.3143,-6.3143,-6.306,-6.3057,-6.3054,-6.3052,-6.3087,-6.309,-6.3094,0,0,0,0,0,0,0,0,0,0,0,0,0,-6.2947,-6.295,-6.3102,-6.3102,-6.3103,-6.3142,-6.3143,-6.3143,-6.306,-6.3057,-6.3054,-6.305,-6.3086,-6.309,-6.3094,0,0,0,0,0,0,0,0,0,0,0,0,0,-6.3003,-6.2951,-6.3102,-6.3066,-6.3063,-6.3142,-6.3143,-6.3143,-6.3061,-6.3057,-6.3053,-6.3049,-6.3085,-6.309,-6.3095,-6.3208,0,0,-6.3111,-6.3113,0,0,0,0,0,0,0,0,-6.3,-6.3009,-6.3071,-6.3069,-6.3066,-6.3092,-6.3101,-6.3165,-6.3062,-6.3062,-6.3052,-6.3047,-6.3092,-6.3096,-6.3112,-6.3209,-6.3211,-6.3111,-6.3114,-6.3116,-6.3118,0,0,0,0,0,0,0,-6.2996,-6.3007,-6.3118,-6.3072,-6.3069,-6.3046,-6.305,-6.3113,-6.3099,-6.3061,-6.3055,-6.3062,-6.3089,-6.3107,-6.3112,-6.3211,-6.3111,-6.3115,-6.3119,-6.3121,-6.3403,-6.3407,0,0,0,0,0,0,-6.2998,-6.3004,-6.3116,-6.3119,-6.3023,-6.3053,-6.3056,-6.3088,-6.3098,-6.3095,-6.3065,-6.3058,-6.31,-6.3106,-6.3113,-6.3245,-6.3116,-6.3121,-6.3124,-6.3398,-6.3404,-6.3408,0,0,0,0,0,0,-6.2995,-6.3009,-6.3115,-6.306,-6.3072,-6.306,-6.3095,-6.309,-6.3108,-6.3101,-6.3097,-6.3087,-6.3098,-6.3106,-6.3185,-6.3246,-6.3124,-6.3128,-6.3393,-6.34,-6.3406,-6.3512,0,0,0,0,0,0,-6.2991,-6.3008,-6.3052,-6.3062,-6.3075,-6.3188,-6.3099,-6.3094,-6.3118,-6.3109,-6.312,-6.3118,-6.3095,-6.3178,-6.319,-6.325,-6.3132,-6.3388,-6.3396,-6.3404,-6.3503,-6.3521,-6.3537,0,0,0,0,0,-6.2985,-6.3079,-6.3055,-6.3069,-6.313,-6.3191,-6.3199,-6.3173,-6.3124,-6.3167,-6.3162,-6.3117,-6.3238,-6.3187,-6.32,-6.3263,-6.3384,-6.3394,-6.3403,-6.3495,-6.3517,-6.3536,0,0,0,0,0,0,-6.3074,-6.3079,-6.3053,-6.3152,-6.3173,-6.3177,-6.3231,-6.3197,-6.323,-6.3219,-6.3184,-6.3187,-6.3273,-6.3276,-6.3219,-6.3372,-6.3302,-6.3315,-6.3367,-6.3388,-6.3405,-6.3402,-6.3137,0,0,0,0,0,-6.3106,-6.3157,-6.3158,-6.3246,-6.3258,-6.3243,-6.3269,-6.3247,-6.3265,-6.3273,-6.3273,-6.3291,-6.3333,-6.3361,-6.3399,-6.3503,-6.3504,-6.3553,-6.357,-6.3584,-6.3595,-6.365,-6.3671,-6.3441,-6.3441,-6.3441,0,0,-6.317,-6.318,-6.3214,-6.3264,-6.3277,-6.3329,-6.325,-6.3309,-6.3346,-6.3281,-6.3356,-6.3358,-6.3375,-6.3467,-6.3508,-6.3472,-6.3659,-6.3597,-6.3608,-6.3611,-6.3662,-6.3684,-6.3703,-6.3447,-6.3446,-6.3445,0,0,-6.3315,-6.3328,-6.3403,-6.3418,-6.344,-6.343,-6.3448,-6.3458,-6.3457,-6.3533,-6.3485,-6.3528,-6.3601,-6.3615,-6.3632,-6.3784,-6.3744,-6.3798,-6.3886,-6.3939,-6.3958,-6.3973,-6.4026,-6.4046,-6.3809,-6.3809,-6.381,0,-6.3392,-6.3471,-6.3444,-6.3507,-6.353,-6.3476,-6.355,-6.3565,-6.3597,-6.3613,-6.3574,-6.3665,-6.3673,-6.3767,-6.3805,-6.3821,-6.3838,-6.3795,-6.3958,-6.3973,-6.3987,-6.4037,-6.4058,-6.3816,-6.3815,-6.3814,-6.3814,0,-6.3564,-6.3619,-6.3676,-6.3711,-6.3741,-6.3809,-6.3791,-6.3824,-6.38,-6.3794,-6.3871,-6.3879,-6.3918,-6.3939,-6.3916,-6.403,-6.4008,-6.3964,-6.3892,-6.4016,-6.4062,-6.4081,-6.3825,-6.3822,-6.3821,-6.3819,0,0,-6.3763,-6.3785,-6.3806,-6.3821,-6.3842,-6.3883,-6.3948,-6.3988,-6.4016,-6.4041,-6.4093,-6.4157,-6.4117,-6.4136,-6.4114,-6.4161,-6.428,-6.4111,-6.4111,-6.4141,-6.4405,-6.4437,-6.446,-6.4254,-6.4258,-6.4261,-6.4403,0,-6.3905,-6.4019,-6.3998,-6.4109,-6.4159,-6.4109,-6.4165,-6.4183,-6.418,-6.422,-6.4215,-6.426,-6.4204,-6.4216,-6.4261,-6.4256,-6.4332,-6.4246,-6.43,-6.4303,-6.4296,-6.4484,-6.4518,-6.4652,-6.4421,-6.4424,-6.4427,0,-6.4086,-6.4119,-6.4236,-6.4249,-6.4269,-6.4321,-6.4356,-6.4396,-6.4415,-6.4409,-6.4432,-6.4401,-6.4464,-6.4393,-6.4478,-6.442,-6.4442,-6.4443,-6.4447,-6.445,-6.4371,-6.449,-6.4694,-6.4713,-6.4455,-6.4453,-6.4451,0,-6.4217,-6.4292,-6.4371,-6.4386,-6.4404,-6.4441,-6.445,-6.4465,-6.4491,-6.4521,-6.4537,-6.4574,-6.4593,-6.4621,-6.4601,-6.4552,-6.4689,-6.4617,-6.4684,-6.4684,-6.4713,-6.4711,-6.4922,-6.4731,-6.473,-6.473,-6.4729,0,-6.4377,-6.445,-6.4431,-6.4479,-6.4559,-6.4534,-6.4612,-6.4615,-6.4629,-6.4676,-6.4635,-6.4679,-6.465,-6.4692,-6.4676,-6.4748,-6.4758,-6.4753,-6.4748,-6.4756,-6.4756,-6.4768,-6.4757,-6.4735,-6.4734,-6.4733,-6.4732,0,-6.4537,-6.4527,-6.461,-6.4622,-6.4626,-6.4684,-6.4692,-6.4737,-6.4731,-6.479,-6.4803,-6.4793,-6.484,-6.4823,-6.4872,-6.4862,-6.4954,-6.4937,-6.4948,-6.4943,-6.501,-6.5003,-6.5234,-6.5262,-6.5054,-6.5056,-6.5058,0,-6.4638,-6.4693,-6.4712,-6.4741,-6.4754,-6.4802,-6.4829,-6.4806,-6.4835,-6.4862,-6.4903,-6.4947,-6.498,-6.5057,-6.5053,-6.509,-6.5073,-6.5151,-6.5078,-6.5084,-6.5072,-6.5068,-6.5073,-6.5165,-6.5167,-6.5169,-6.5171,0,-6.4819,-6.4812,-6.4854,-6.4894,-6.4928,-6.4958,-6.4983,-6.5009,-6.4988,-6.5023,-6.5072,-6.5098,-6.515,-6.5193,-6.5227,-6.5234,-6.5198,-6.5195,-6.5212,-6.5219,-6.5223,-6.522,-6.4986,-6.5189,-6.5187,-6.5186,-6.5185,-6.5184,-6.4952,-6.4998,-6.5019,-6.5066,-6.5084,-6.511,-6.5152,-6.5153,-6.5194,-6.5236,-6.522,-6.5275,-6.5293,-6.5335,-6.5347,-6.5389,-6.5358,-6.5383,-6.5389,-6.5395,-6.5404,-6.5219,-6.5395,-6.5395,-6.5394,-6.5394,-6.5393,0,-6.5129,-6.5141,-6.5185,-6.5224,-6.5261,-6.5228,-6.5255,-6.5287,-6.5338,-6.5358,-6.5393,-6.5449,-6.5491,-6.5492,-6.553,-6.5564,-6.5549,-6.5575,-6.5571,-6.5573,-6.5429,-6.541,-6.5586,-6.5586,-6.5586,-6.5586,-6.5586,-6.5586,-6.5225,-6.5303,-6.5299,-6.5384,-6.5394,-6.545,-6.5468,-6.5491,-6.5507,-6.5572,-6.5608,-6.5609,-6.5621,-6.5661,-6.5698,-6.5697,-6.5712,-6.5744,-6.5736,-6.5602,-6.5583,-6.5564,-6.5546,-6.5748,-6.5748,-6.5876,-6.5877,-6.5878]}]]